{"data":{"norad_id":64856,"intl_designator":"2025-152Q","name":"STARLINK-34578","alt_names":[],"object_type":"PAYLOAD","status":"ACTIVE","operator":null,"country":"US","launch_date":"2025-07-19","launch_site_code":"AFWTR","launch_vehicle":null,"mission":null,"orbit_class":"UNKNOWN","rcs_meters":null,"size_class":null,"mass_kg":null,"dimensions":null,"purposes":["comms"],"wikipedia_slug":null,"has_3d_model":false,"image_url":null,"decayed_at":null,"tle_current":{"epoch":"2026-09-20T13:21:30.393792Z","epoch_age_seconds":119396,"freshness":"FRESH","line1":"1 64856U 25152Q   26263.55660178  .00005119  00000+0  16080-3 0  9994","line2":"2 64856  97.2851 114.1409 0001715  93.0163 267.1276 15.33443532 64834","mean_motion":15.33443532,"eccentricity":0.0001715,"inclination_deg":97.2851,"raan_deg":114.1409,"arg_perigee_deg":93.0163,"mean_anomaly_deg":267.1276,"bstar":0.0001608,"rev_number":6483,"period_min":93.906294555358,"perigee_km":464.3738503178,"apogee_km":466.72123411578,"semimajor_km":6843.6845422168,"source":"CELESTRAK","updated_at":"2026-09-21T09:00:35.451233Z"}}}